Time,TemperatureF,DewpointF,PressureIn,WindDirection,WindDirectionDegrees,WindSpeedMPH,WindSpeedGustMPH,Humidity,HourlyPrecipIn,Conditions,Clouds,dailyrainin,SoftwareType,DateUTC
2013-07-03 00:02:00,72.0,50.1,29.86,ENE,69,0.0,0.0,46,0.00,,,0.00,WeatherCatV1.15B25,2013-07-03 07:02:00,
2013-07-03 00:07:00,72.1,50.7,29.86,ENE,69,0.0,0.0,47,0.00,,,0.00,WeatherCatV1.15B25,2013-07-03 07:07:00,
2013-07-03 00:12:00,72.1,50.2,29.86,ENE,69,0.0,0.0,46,0.00,,,0.00,WeatherCatV1.15B25,2013-07-03 07:12:00,
2013-07-03 00:17:00,72.1,50.2,29.86,ENE,69,0.0,0.0,46,0.00,,,0.00,WeatherCatV1.15B25,2013-07-03 07:17:00,
2013-07-03 00:22:00,72.1,50.2,29.86,ENE,69,0.0,0.0,46,0.00,,,0.00,WeatherCatV1.15B25,2013-07-03 07:22:00,
2013-07-03 00:27:00,72.1,50.2,29.86,ENE,69,0.0,0.0,46,0.00,,,0.00,WeatherCatV1.15B25,2013-07-03 07:27:00,
2013-07-03 00:32:00,72.1,49.6,29.86,ENE,69,0.0,0.0,45,0.00,,,0.00,WeatherCatV1.15B25,2013-07-03 07:32:00,
2013-07-03 00:37:00,72.1,49.6,29.86,ENE,69,0.0,0.0,45,0.00,,,0.00,WeatherCatV1.15B25,2013-07-03 07:37:00,
2013-07-03 00:42:00,72.2,49.7,29.86,ENE,69,0.0,0.0,45,0.00,,,0.00,WeatherCatV1.15B25,2013-07-03 07:42:00,
2013-07-03 00:47:00,72.2,49.7,29.85,ENE,69,0.0,0.0,45,0.00,,,0.00,WeatherCatV1.15B25,2013-07-03 07:47:00,
2013-07-03 00:52:00,72.2,50.3,29.85,ENE,69,0.0,0.0,46,0.00,,,0.00,WeatherCatV1.15B25,2013-07-03 07:52:00,
2013-07-03 00:57:00,72.3,49.8,29.85,ENE,69,0.0,0.0,45,0.00,,,0.00,WeatherCatV1.15B25,2013-07-03 07:57:00,
2013-07-03 01:01:00,72.3,49.8,29.85,ENE,69,0.0,0.0,45,0.00,,,0.00,WeatherCatV1.15B25,2013-07-03 08:01:00,
2013-07-03 01:06:00,72.4,49.8,29.85,ENE,69,0.0,0.0,45,0.00,,,0.00,WeatherCatV1.15B25,2013-07-03 08:06:00,
2013-07-03 01:09:00,72.4,49.8,29.85,ENE,69,0.0,0.0,45,0.00,,,0.00,WeatherCatV1.15B25,2013-07-03 08:09:00,
2013-07-03 01:14:00,72.4,49.8,29.85,ENE,69,0.0,0.0,45,0.00,,,0.00,WeatherCatV1.15B25,2013-07-03 08:14:00,
2013-07-03 01:19:00,72.4,49.8,29.85,ENE,69,0.0,0.0,45,0.00,,,0.00,WeatherCatV1.15B25,2013-07-03 08:19:00,
2013-07-03 01:24:00,72.4,49.8,29.85,ENE,69,0.0,0.0,45,0.00,,,0.00,WeatherCatV1.15B25,2013-07-03 08:24:00,
2013-07-03 01:29:00,72.3,49.8,29.85,ENE,69,0.0,0.0,45,0.00,,,0.00,WeatherCatV1.15B25,2013-07-03 08:29:00,
2013-07-03 01:34:00,72.2,49.7,29.85,ENE,69,0.0,0.0,45,0.00,,,0.00,WeatherCatV1.15B25,2013-07-03 08:34:00,
2013-07-03 01:38:00,72.2,49.7,29.85,ENE,69,0.0,0.0,45,0.00,,,0.00,WeatherCatV1.15B25,2013-07-03 08:38:00,
2013-07-03 01:41:00,72.2,49.7,29.85,ENE,69,0.0,0.0,45,0.00,,,0.00,WeatherCatV1.15B25,2013-07-03 08:41:00,
2013-07-03 01:44:00,72.2,49.7,29.84,ENE,69,0.0,0.0,45,0.00,,,0.00,WeatherCatV1.15B25,2013-07-03 08:44:00,
2013-07-03 01:49:00,72.4,49.8,29.84,ENE,69,0.0,0.0,45,0.00,,,0.00,WeatherCatV1.15B25,2013-07-03 08:49:00,
2013-07-03 01:50:00,72.4,49.8,29.84,ENE,69,0.0,0.0,45,0.00,,,0.00,WeatherCatV1.15B25,2013-07-03 08:50:00,
2013-07-03 01:55:00,72.5,49.9,29.84,ENE,69,0.0,0.0,45,0.00,,,0.00,WeatherCatV1.15B25,2013-07-03 08:55:00,
2013-07-03 02:00:00,72.6,50.0,29.83,ENE,69,0.0,0.0,45,0.00,,,0.00,WeatherCatV1.15B25,2013-07-03 09:00:00,
2013-07-03 02:05:00,72.6,50.0,29.83,ENE,69,0.0,0.0,45,0.00,,,0.00,WeatherCatV1.15B25,2013-07-03 09:05:00,
2013-07-03 02:10:00,72.4,50.4,29.83,ENE,69,0.0,0.0,46,0.00,,,0.00,WeatherCatV1.15B25,2013-07-03 09:10:00,
2013-07-03 02:15:00,72.2,49.7,29.83,ENE,69,0.0,0.0,45,0.00,,,0.00,WeatherCatV1.15B25,2013-07-03 09:15:00,
2013-07-03 02:20:00,72.0,50.1,29.83,ENE,69,0.0,0.0,46,0.00,,,0.00,WeatherCatV1.15B25,2013-07-03 09:20:00,
2013-07-03 02:25:00,71.8,49.9,29.83,ENE,69,0.0,0.0,46,0.00,,,0.00,WeatherCatV1.15B25,2013-07-03 09:25:00,
2013-07-03 02:30:00,71.6,49.7,29.83,ENE,69,0.0,0.0,46,0.00,,,0.00,WeatherCatV1.15B25,2013-07-03 09:30:00,
2013-07-03 02:35:00,71.5,49.6,29.83,ENE,69,0.0,0.0,46,0.00,,,0.00,WeatherCatV1.15B25,2013-07-03 09:35:00,
2013-07-03 02:40:00,71.4,49.5,29.83,ENE,69,0.0,0.0,46,0.00,,,0.00,WeatherCatV1.15B25,2013-07-03 09:40:00,
2013-07-03 02:45:00,71.3,50.0,29.82,ENE,69,0.0,0.0,47,0.00,,,0.00,WeatherCatV1.15B25,2013-07-03 09:45:00,
2013-07-03 02:51:00,71.2,49.9,29.82,ENE,69,0.0,0.0,47,0.00,,,0.00,WeatherCatV1.15B25,2013-07-03 09:51:00,
2013-07-03 02:56:00,71.1,49.8,29.82,ENE,69,0.0,0.0,47,0.00,,,0.00,WeatherCatV1.15B25,2013-07-03 09:56:00,
2013-07-03 03:01:00,71.1,49.8,29.82,ENE,69,0.0,0.0,47,0.00,,,0.00,WeatherCatV1.15B25,2013-07-03 10:01:00,
2013-07-03 03:05:00,71.0,49.7,29.82,ENE,69,0.0,0.0,47,0.00,,,0.00,WeatherCatV1.15B25,2013-07-03 10:05:00,
2013-07-03 03:10:00,70.9,49.7,29.82,ENE,69,0.0,0.0,47,0.00,,,0.00,WeatherCatV1.15B25,2013-07-03 10:10:00,
2013-07-03 03:15:00,70.9,49.7,29.82,ENE,69,0.0,0.0,47,0.00,,,0.00,WeatherCatV1.15B25,2013-07-03 10:15:00,
2013-07-03 03:20:00,70.8,49.6,29.82,ENE,69,0.0,0.0,47,0.00,,,0.00,WeatherCatV1.15B25,2013-07-03 10:20:00,
2013-07-03 03:25:00,70.7,50.0,29.82,ENE,69,0.0,0.0,48,0.00,,,0.00,WeatherCatV1.15B25,2013-07-03 10:25:00,
2013-07-03 03:30:00,70.5,49.9,29.82,ENE,69,0.0,0.0,48,0.00,,,0.00,WeatherCatV1.15B25,2013-07-03 10:30:00,
2013-07-03 03:35:00,70.4,49.8,29.82,ENE,69,0.0,0.0,48,0.00,,,0.00,WeatherCatV1.15B25,2013-07-03 10:35:00,
2013-07-03 03:40:00,70.2,50.1,29.82,ENE,69,0.0,0.0,49,0.00,,,0.00,WeatherCatV1.15B25,2013-07-03 10:40:00,
2013-07-03 03:45:00,70.1,49.5,29.82,ENE,69,0.0,0.0,48,0.00,,,0.00,WeatherCatV1.15B25,2013-07-03 10:45:00,
2013-07-03 03:48:00,70.0,49.4,29.82,ENE,69,0.0,0.0,48,0.00,,,0.00,WeatherCatV1.15B25,2013-07-03 10:48:00,
2013-07-03 03:50:00,70.0,49.9,29.82,ENE,69,0.0,0.0,49,0.00,,,0.00,WeatherCatV1.15B25,2013-07-03 10:50:00,
2013-07-03 03:55:00,69.9,48.7,29.82,ENE,69,0.0,0.0,47,0.00,,,0.00,WeatherCatV1.15B25,2013-07-03 10:55:00,
2013-07-03 03:56:00,69.9,48.7,29.82,ENE,69,0.0,0.0,47,0.00,,,0.00,WeatherCatV1.15B25,2013-07-03 10:56:00,
2013-07-03 04:01:00,69.9,49.3,29.81,ENE,69,0.0,0.0,48,0.00,,,0.00,WeatherCatV1.15B25,2013-07-03 11:01:00,
2013-07-03 04:06:00,69.8,48.6,29.81,ENE,69,0.0,0.0,47,0.00,,,0.00,WeatherCatV1.15B25,2013-07-03 11:06:00,
2013-07-03 04:11:00,69.9,49.3,29.81,ENE,69,0.0,0.0,48,0.00,,,0.00,WeatherCatV1.15B25,2013-07-03 11:11:00,
2013-07-03 04:16:00,69.9,48.7,29.81,ENE,69,0.0,0.0,47,0.00,,,0.00,WeatherCatV1.15B25,2013-07-03 11:16:00,
2013-07-03 04:21:00,70.0,48.8,29.81,ENE,69,0.0,0.0,47,0.00,,,0.00,WeatherCatV1.15B25,2013-07-03 11:21:00,
2013-07-03 04:26:00,70.0,48.8,29.81,ENE,69,0.0,0.0,47,0.00,,,0.00,WeatherCatV1.15B25,2013-07-03 11:26:00,
2013-07-03 04:31:00,70.1,48.9,29.81,ENE,69,0.0,0.0,47,0.00,,,0.00,WeatherCatV1.15B25,2013-07-03 11:31:00,
2013-07-03 04:36:00,70.1,48.9,29.81,ENE,69,0.0,0.0,47,0.00,,,0.00,WeatherCatV1.15B25,2013-07-03 11:36:00,
2013-07-03 04:41:00,70.0,49.4,29.81,ENE,69,0.0,0.0,48,0.00,,,0.00,WeatherCatV1.15B25,2013-07-03 11:41:00,
2013-07-03 04:45:00,69.9,49.3,29.80,ENE,69,0.0,0.0,48,0.00,,,0.00,WeatherCatV1.15B25,2013-07-03 11:45:00,
2013-07-03 04:50:00,69.7,49.1,29.80,ENE,69,0.0,0.0,48,0.00,,,0.00,WeatherCatV1.15B25,2013-07-03 11:50:00,
2013-07-03 04:55:00,69.6,48.5,29.80,ENE,69,0.0,0.0,47,0.00,,,0.00,WeatherCatV1.15B25,2013-07-03 11:55:00,
2013-07-03 05:00:00,69.6,48.5,29.80,ENE,69,0.0,0.0,47,0.00,,,0.00,WeatherCatV1.15B25,2013-07-03 12:00:00,
2013-07-03 05:01:00,69.6,48.5,29.80,ENE,69,0.0,0.0,47,0.00,,,0.00,WeatherCatV1.15B25,2013-07-03 12:01:00,
2013-07-03 05:06:00,69.7,48.6,29.80,ENE,69,0.0,0.0,47,0.00,,,0.00,WeatherCatV1.15B25,2013-07-03 12:06:00,
2013-07-03 05:11:00,69.7,48.6,29.80,ENE,69,0.0,0.0,47,0.00,,,0.00,WeatherCatV1.15B25,2013-07-03 12:11:00,
2013-07-03 05:16:00,69.7,48.6,29.81,ENE,69,0.0,0.0,47,0.00,,,0.00,WeatherCatV1.15B25,2013-07-03 12:16:00,
2013-07-03 05:20:00,69.7,49.1,29.81,ENE,69,0.0,0.0,48,0.00,,,0.00,WeatherCatV1.15B25,2013-07-03 12:20:00,
2013-07-03 05:25:00,69.7,49.7,29.81,ENE,69,0.0,0.0,49,0.00,,,0.00,WeatherCatV1.15B25,2013-07-03 12:25:00,
2013-07-03 05:30:00,69.6,49.6,29.82,ENE,69,0.0,0.0,49,0.00,,,0.00,WeatherCatV1.15B25,2013-07-03 12:30:00,
2013-07-03 05:35:00,69.5,49.5,29.82,ENE,69,0.0,0.0,49,0.00,,,0.00,WeatherCatV1.15B25,2013-07-03 12:35:00,
2013-07-03 05:40:00,69.4,49.9,29.82,ENE,69,0.0,0.0,50,0.00,,,0.00,WeatherCatV1.15B25,2013-07-03 12:40:00,
2013-07-03 05:45:00,69.2,49.8,29.82,ENE,69,0.0,0.0,50,0.00,,,0.00,WeatherCatV1.15B25,2013-07-03 12:45:00,
2013-07-03 05:50:00,68.9,49.5,29.82,ENE,69,0.0,0.0,50,0.00,,,0.00,WeatherCatV1.15B25,2013-07-03 12:50:00,
2013-07-03 05:55:00,68.7,49.3,29.82,ENE,69,0.0,0.0,50,0.00,,,0.00,WeatherCatV1.15B25,2013-07-03 12:55:00,
2013-07-03 06:01:00,68.6,49.2,29.81,ENE,69,0.0,0.0,50,0.00,,,0.00,WeatherCatV1.15B25,2013-07-03 13:01:00,
2013-07-03 06:06:00,68.5,48.0,29.81,ENE,69,0.0,0.0,48,0.00,,,0.00,WeatherCatV1.15B25,2013-07-03 13:06:00,
2013-07-03 06:11:00,68.6,47.0,29.81,ENE,69,0.0,0.0,46,0.00,,,0.00,WeatherCatV1.15B25,2013-07-03 13:11:00,
2013-07-03 06:16:00,68.7,47.1,29.82,ENE,69,0.0,0.0,46,0.00,,,0.00,WeatherCatV1.15B25,2013-07-03 13:16:00,
2013-07-03 06:21:00,68.8,47.2,29.82,ENE,69,0.0,0.0,46,0.00,,,0.00,WeatherCatV1.15B25,2013-07-03 13:21:00,
2013-07-03 06:26:00,68.9,46.7,29.82,ENE,69,0.0,0.0,45,0.00,,,0.00,WeatherCatV1.15B25,2013-07-03 13:26:00,
2013-07-03 06:31:00,69.0,46.8,29.82,ENE,69,0.0,0.0,45,0.00,,,0.00,WeatherCatV1.15B25,2013-07-03 13:31:00,
2013-07-03 06:36:00,69.2,46.3,29.82,ENE,69,0.0,0.0,44,0.00,,,0.00,WeatherCatV1.15B25,2013-07-03 13:36:00,
2013-07-03 06:41:00,69.4,47.1,29.82,ENE,69,0.0,0.0,45,0.00,,,0.00,WeatherCatV1.15B25,2013-07-03 13:41:00,
2013-07-03 06:46:00,69.5,47.2,29.82,ENE,69,0.0,0.0,45,0.00,,,0.00,WeatherCatV1.15B25,2013-07-03 13:46:00,
2013-07-03 06:51:00,69.7,47.4,29.82,ENE,69,0.0,0.0,45,0.00,,,0.00,WeatherCatV1.15B25,2013-07-03 13:51:00,
2013-07-03 06:56:00,70.0,46.5,29.82,ENE,69,0.0,0.0,43,0.00,,,0.00,WeatherCatV1.15B25,2013-07-03 13:56:00,
2013-07-03 07:01:00,70.4,46.8,29.82,ENE,69,0.0,0.0,43,0.00,,,0.00,WeatherCatV1.15B25,2013-07-03 14:01:00,
2013-07-03 07:06:00,70.6,47.0,29.82,ENE,69,0.0,0.0,43,0.00,,,0.00,WeatherCatV1.15B25,2013-07-03 14:06:00,
2013-07-03 07:11:00,71.0,48.0,29.82,ENE,69,0.0,0.0,44,0.00,,,0.00,WeatherCatV1.15B25,2013-07-03 14:11:00,
2013-07-03 07:16:00,71.2,48.8,29.82,ENE,69,0.0,0.0,45,0.00,,,0.00,WeatherCatV1.15B25,2013-07-03 14:16:00,
2013-07-03 07:21:00,71.4,47.1,29.82,ENE,69,0.0,0.0,42,0.00,,,0.00,WeatherCatV1.15B25,2013-07-03 14:21:00,
2013-07-03 07:26:00,72.0,47.6,29.82,SE,133,0.0,0.0,42,0.00,,,0.00,WeatherCatV1.15B25,2013-07-03 14:26:00,
2013-07-03 07:29:00,72.5,48.1,29.82,SE,133,0.0,0.0,42,0.00,,,0.00,WeatherCatV1.15B25,2013-07-03 14:29:00,
2013-07-03 07:34:00,73.1,48.6,29.82,SE,133,0.0,0.0,42,0.00,,,0.00,WeatherCatV1.15B25,2013-07-03 14:34:00,
2013-07-03 07:37:00,73.3,48.2,29.82,SE,133,0.0,0.0,41,0.00,,,0.00,WeatherCatV1.15B25,2013-07-03 14:37:00,
2013-07-03 07:42:00,73.6,47.8,29.82,SE,133,0.0,0.0,40,0.00,,,0.00,WeatherCatV1.15B25,2013-07-03 14:42:00,
2013-07-03 07:47:00,73.9,48.0,29.82,SE,133,0.0,0.0,40,0.00,,,0.00,WeatherCatV1.15B25,2013-07-03 14:47:00,
2013-07-03 07:52:00,74.1,48.2,29.82,SE,133,0.0,0.0,40,0.00,,,0.00,WeatherCatV1.15B25,2013-07-03 14:52:00,
2013-07-03 07:57:00,74.4,49.1,29.82,SE,133,0.0,0.0,41,0.00,,,0.00,WeatherCatV1.15B25,2013-07-03 14:57:00,
2013-07-03 08:02:00,74.6,48.0,29.82,SE,133,0.0,0.0,39,0.00,,,0.00,WeatherCatV1.15B25,2013-07-03 15:02:00,
2013-07-03 08:07:00,74.8,47.5,29.82,SE,133,0.0,0.0,38,0.00,,,0.00,WeatherCatV1.15B25,2013-07-03 15:07:00,
2013-07-03 08:12:00,74.9,47.6,29.82,SE,133,0.0,0.0,38,0.00,,,0.00,WeatherCatV1.15B25,2013-07-03 15:12:00,
2013-07-03 08:17:00,75.2,47.8,29.81,SE,133,0.0,0.0,38,0.00,,,0.00,WeatherCatV1.15B25,2013-07-03 15:17:00,
2013-07-03 08:22:00,75.6,48.2,29.81,SE,133,0.0,0.0,38,0.00,,,0.00,WeatherCatV1.15B25,2013-07-03 15:22:00,
2013-07-03 08:27:00,76.4,50.3,29.81,SE,133,0.0,0.0,40,0.00,,,0.00,WeatherCatV1.15B25,2013-07-03 15:27:00,
2013-07-03 08:32:00,76.7,49.9,29.82,SE,133,0.0,0.0,39,0.00,,,0.00,WeatherCatV1.15B25,2013-07-03 15:32:00,
2013-07-03 08:37:00,77.1,50.2,29.82,SE,133,0.0,0.0,39,0.00,,,0.00,WeatherCatV1.15B25,2013-07-03 15:37:00,
2013-07-03 08:42:00,77.4,49.8,29.82,SE,133,1.0,1.0,38,0.00,,,0.00,WeatherCatV1.15B25,2013-07-03 15:42:00,
2013-07-03 08:47:00,77.8,48.7,29.82,SSE,153,0.0,2.0,36,0.00,,,0.00,WeatherCatV1.15B25,2013-07-03 15:47:00,
2013-07-03 08:52:00,78.3,50.6,29.82,SSE,153,0.0,1.0,38,0.00,,,0.00,WeatherCatV1.15B25,2013-07-03 15:52:00,
2013-07-03 08:57:00,78.8,51.0,29.82,SSE,153,0.0,1.0,38,0.00,,,0.00,WeatherCatV1.15B25,2013-07-03 15:57:00,
2013-07-03 09:02:00,79.2,52.1,29.82,SSE,166,0.0,1.0,39,0.00,,,0.00,WeatherCatV1.15B25,2013-07-03 16:02:00,
2013-07-03 09:07:00,79.4,52.3,29.82,ESE,121,0.0,1.0,39,0.00,,,0.00,WeatherCatV1.15B25,2013-07-03 16:07:00,
2013-07-03 09:12:00,79.7,53.9,29.82,SE,128,1.0,1.0,41,0.00,,,0.00,WeatherCatV1.15B25,2013-07-03 16:12:00,
2013-07-03 09:17:00,80.0,53.5,29.82,SSE,156,0.0,1.0,40,0.00,,,0.00,WeatherCatV1.15B25,2013-07-03 16:17:00,
2013-07-03 09:22:00,80.2,52.3,29.82,SSE,156,0.0,0.0,38,0.00,,,0.00,WeatherCatV1.15B25,2013-07-03 16:22:00,
2013-07-03 09:27:00,80.5,51.1,29.82,SSE,164,0.0,0.0,36,0.00,,,0.00,WeatherCatV1.15B25,2013-07-03 16:27:00,
2013-07-03 09:32:00,80.9,49.9,29.82,SSE,164,1.0,1.0,34,0.00,,,0.00,WeatherCatV1.15B25,2013-07-03 16:32:00,
2013-07-03 09:37:00,81.3,49.4,29.82,SSE,161,0.0,1.0,33,0.00,,,0.00,WeatherCatV1.15B25,2013-07-03 16:37:00,
2013-07-03 09:42:00,81.9,48.3,29.82,SSE,159,1.0,1.0,31,0.00,,,0.00,WeatherCatV1.15B25,2013-07-03 16:42:00,
2013-07-03 09:47:00,82.4,48.7,29.82,SSE,158,0.0,1.0,31,0.00,,,0.00,WeatherCatV1.15B25,2013-07-03 16:47:00,
2013-07-03 09:52:00,82.9,50.0,29.82,SSE,159,0.0,2.0,32,0.00,,,0.00,WeatherCatV1.15B25,2013-07-03 16:52:00,
2013-07-03 09:57:00,83.4,55.1,29.82,SE,140,0.0,1.0,38,0.00,,,0.00,WeatherCatV1.15B25,2013-07-03 16:57:00,
2013-07-03 10:02:00,83.6,56.7,29.82,SSE,152,1.0,2.0,40,0.00,,,0.00,WeatherCatV1.15B25,2013-07-03 17:02:00,
2013-07-03 10:07:00,83.6,56.0,29.82,SSE,152,0.0,2.0,39,0.00,,,0.00,WeatherCatV1.15B25,2013-07-03 17:07:00,
2013-07-03 10:12:00,83.8,56.2,29.82,SSE,152,0.0,1.0,39,0.00,,,0.00,WeatherCatV1.15B25,2013-07-03 17:12:00,
2013-07-03 10:17:00,83.9,57.6,29.81,SE,144,1.0,1.0,41,0.00,,,0.00,WeatherCatV1.15B25,2013-07-03 17:17:00,
2013-07-03 10:22:00,84.0,58.4,29.81,SE,144,1.0,2.0,42,0.00,,,0.00,WeatherCatV1.15B25,2013-07-03 17:22:00,
2013-07-03 10:27:00,83.9,60.3,29.81,SE,144,0.0,1.0,45,0.00,,,0.00,WeatherCatV1.15B25,2013-07-03 17:27:00,
2013-07-03 10:32:00,83.6,61.2,29.81,SE,144,1.0,2.0,47,0.00,,,0.00,WeatherCatV1.15B25,2013-07-03 17:32:00,
2013-07-03 10:37:00,83.1,60.8,29.81,SE,144,0.0,1.0,47,0.00,,,0.00,WeatherCatV1.15B25,2013-07-03 17:37:00,
2013-07-03 10:41:00,82.7,60.4,29.81,SE,141,0.0,3.0,47,0.00,,,0.00,WeatherCatV1.15B25,2013-07-03 17:41:00,
2013-07-03 10:46:00,82.1,60.4,29.81,SE,144,1.0,2.0,48,0.00,,,0.00,WeatherCatV1.15B25,2013-07-03 17:46:00,
2013-07-03 10:51:00,81.9,60.3,29.81,SSE,154,1.0,2.0,48,0.00,,,0.00,WeatherCatV1.15B25,2013-07-03 17:51:00,
2013-07-03 10:56:00,81.8,60.7,29.81,SSE,149,0.0,1.0,49,0.00,,,0.00,WeatherCatV1.15B25,2013-07-03 17:56:00,
2013-07-03 11:01:00,81.7,61.2,29.81,SSE,149,0.0,2.0,50,0.00,,,0.00,WeatherCatV1.15B25,2013-07-03 18:01:00,
2013-07-03 11:06:00,81.5,61.6,29.81,SSE,149,0.0,1.0,51,0.00,,,0.00,WeatherCatV1.15B25,2013-07-03 18:06:00,
2013-07-03 11:11:00,81.2,60.8,29.81,SSE,152,0.0,1.0,50,0.00,,,0.00,WeatherCatV1.15B25,2013-07-03 18:11:00,
2013-07-03 11:16:00,81.0,61.7,29.81,SSE,152,0.0,1.0,52,0.00,,,0.00,WeatherCatV1.15B25,2013-07-03 18:16:00,
2013-07-03 11:21:00,80.8,61.5,29.81,SSE,152,1.0,2.0,52,0.00,,,0.00,WeatherCatV1.15B25,2013-07-03 18:21:00,
2013-07-03 11:26:00,80.5,61.8,29.81,SSE,152,0.0,2.0,53,0.00,,,0.00,WeatherCatV1.15B25,2013-07-03 18:26:00,
2013-07-03 11:31:00,80.3,62.1,29.82,SSE,152,1.0,2.0,54,0.00,,,0.00,WeatherCatV1.15B25,2013-07-03 18:31:00,
2013-07-03 11:36:00,80.4,61.7,29.82,SSE,148,0.0,1.0,53,0.00,,,0.00,WeatherCatV1.15B25,2013-07-03 18:36:00,
2013-07-03 11:41:00,80.8,61.0,29.82,SSE,148,1.0,2.0,51,0.00,,,0.00,WeatherCatV1.15B25,2013-07-03 18:41:00,
2013-07-03 11:46:00,81.4,62.1,29.81,SSE,149,0.0,1.0,52,0.00,,,0.00,WeatherCatV1.15B25,2013-07-03 18:46:00,
2013-07-03 11:51:00,82.0,62.6,29.81,SSE,149,1.0,2.0,52,0.00,,,0.00,WeatherCatV1.15B25,2013-07-03 18:51:00,
2013-07-03 11:56:00,82.8,62.2,29.81,SSE,148,2.0,2.0,50,0.00,,,0.00,WeatherCatV1.15B25,2013-07-03 18:56:00,
2013-07-03 12:00:00,83.5,62.3,29.81,SE,135,0.0,2.0,49,0.00,,,0.00,WeatherCatV1.15B25,2013-07-03 19:00:00,
2013-07-03 12:05:00,84.1,62.8,29.81,SE,140,1.0,1.0,49,0.00,,,0.00,WeatherCatV1.15B25,2013-07-03 19:05:00,
2013-07-03 12:10:00,84.8,62.9,29.81,SE,146,1.0,2.0,48,0.00,,,0.00,WeatherCatV1.15B25,2013-07-03 19:10:00,
2013-07-03 12:15:00,85.4,62.8,29.81,SSE,153,1.0,1.0,47,0.00,,,0.00,WeatherCatV1.15B25,2013-07-03 19:15:00,
2013-07-03 12:20:00,85.7,63.1,29.81,SSE,152,1.0,2.0,47,0.00,,,0.00,WeatherCatV1.15B25,2013-07-03 19:20:00,
2013-07-03 12:25:00,85.5,61.7,29.81,SE,141,1.0,1.0,45,0.00,,,0.00,WeatherCatV1.15B25,2013-07-03 19:25:00,
2013-07-03 12:30:00,85.2,61.4,29.82,SE,144,0.0,2.0,45,0.00,,,0.00,WeatherCatV1.15B25,2013-07-03 19:30:00,
2013-07-03 12:35:00,85.0,62.5,29.82,SE,144,0.0,1.0,47,0.00,,,0.00,WeatherCatV1.15B25,2013-07-03 19:35:00,
2013-07-03 12:40:00,85.6,62.4,29.82,SE,144,1.0,2.0,46,0.00,,,0.00,WeatherCatV1.15B25,2013-07-03 19:40:00,
2013-07-03 12:45:00,86.3,63.0,29.81,SSE,166,0.0,2.0,46,0.00,,,0.00,WeatherCatV1.15B25,2013-07-03 19:45:00,
2013-07-03 12:50:00,86.9,63.0,29.81,SE,130,1.0,1.0,45,0.00,,,0.00,WeatherCatV1.15B25,2013-07-03 19:50:00,
2013-07-03 12:55:00,87.1,62.5,29.81,ESE,120,1.0,1.0,44,0.00,,,0.00,WeatherCatV1.15B25,2013-07-03 19:55:00,
2013-07-03 13:00:00,87.1,61.8,29.81,SSE,162,0.0,1.0,43,0.00,,,0.00,WeatherCatV1.15B25,2013-07-03 20:00:00,
2013-07-03 13:05:00,87.2,61.9,29.81,SSE,162,0.0,2.0,43,0.00,,,0.00,WeatherCatV1.15B25,2013-07-03 20:05:00,
2013-07-03 13:10:00,87.5,62.2,29.81,SE,139,0.0,1.0,43,0.00,,,0.00,WeatherCatV1.15B25,2013-07-03 20:10:00,
2013-07-03 13:15:00,87.6,62.3,29.81,SE,140,1.0,1.0,43,0.00,,,0.00,WeatherCatV1.15B25,2013-07-03 20:15:00,
2013-07-03 13:20:00,87.8,62.5,29.81,SE,140,0.0,1.0,43,0.00,,,0.00,WeatherCatV1.15B25,2013-07-03 20:20:00,
2013-07-03 13:25:00,88.0,63.3,29.81,SSE,156,1.0,1.0,44,0.00,,,0.00,WeatherCatV1.15B25,2013-07-03 20:25:00,
2013-07-03 13:30:00,88.2,62.2,29.81,SSE,157,2.0,3.0,42,0.00,,,0.00,WeatherCatV1.15B25,2013-07-03 20:30:00,
2013-07-03 13:35:00,88.0,62.7,29.81,SSE,162,0.0,2.0,43,0.00,,,0.00,WeatherCatV1.15B25,2013-07-03 20:35:00,
2013-07-03 13:40:00,88.1,62.7,29.81,SE,138,1.0,2.0,43,0.00,,,0.00,WeatherCatV1.15B25,2013-07-03 20:40:00,
2013-07-03 13:45:00,88.7,63.3,29.81,SE,137,2.0,2.0,43,0.00,,,0.00,WeatherCatV1.15B25,2013-07-03 20:45:00,
2013-07-03 13:50:00,89.0,62.9,29.81,SE,129,1.0,1.0,42,0.00,,,0.00,WeatherCatV1.15B25,2013-07-03 20:50:00,
2013-07-03 13:55:00,89.1,63.0,29.81,SSE,164,1.0,2.0,42,0.00,,,0.00,WeatherCatV1.15B25,2013-07-03 20:55:00,
2013-07-03 14:00:00,89.2,62.4,29.81,SSE,163,1.0,2.0,41,0.00,,,0.00,WeatherCatV1.15B25,2013-07-03 21:00:00,
2013-07-03 14:05:00,89.1,62.3,29.81,SSE,168,1.0,2.0,41,0.00,,,0.00,WeatherCatV1.15B25,2013-07-03 21:05:00,
2013-07-03 14:10:00,88.6,62.5,29.81,SSE,162,0.0,1.0,42,0.00,,,0.00,WeatherCatV1.15B25,2013-07-03 21:10:00,
2013-07-03 14:15:00,88.1,62.7,29.80,SSE,168,0.0,1.0,43,0.00,,,0.00,WeatherCatV1.15B25,2013-07-03 21:15:00,
2013-07-03 14:20:00,88.2,62.2,29.80,SSE,150,2.0,5.0,42,0.00,,,0.00,WeatherCatV1.15B25,2013-07-03 21:20:00,
2013-07-03 14:25:00,88.3,62.3,29.80,SE,145,0.0,1.0,42,0.00,,,0.00,WeatherCatV1.15B25,2013-07-03 21:25:00,
2013-07-03 14:30:00,88.2,62.2,29.79,SSE,165,0.0,3.0,42,0.00,,,0.00,WeatherCatV1.15B25,2013-07-03 21:30:00,
2013-07-03 14:35:00,87.8,61.8,29.79,SSE,154,1.0,2.0,42,0.00,,,0.00,WeatherCatV1.15B25,2013-07-03 21:35:00,
2013-07-03 14:40:00,87.3,62.7,29.79,SSE,150,0.0,2.0,44,0.00,,,0.00,WeatherCatV1.15B25,2013-07-03 21:40:00,
2013-07-03 14:45:00,87.2,61.9,29.79,SSE,165,0.0,3.0,43,0.00,,,0.00,WeatherCatV1.15B25,2013-07-03 21:45:00,
2013-07-03 14:50:00,87.7,62.4,29.79,SSE,157,0.0,2.0,43,0.00,,,0.00,WeatherCatV1.15B25,2013-07-03 21:50:00,
2013-07-03 14:55:00,88.1,61.4,29.79,SE,137,0.0,2.0,41,0.00,,,0.00,WeatherCatV1.15B25,2013-07-03 21:55:00,
2013-07-03 15:00:00,88.2,61.5,29.79,SE,142,0.0,2.0,41,0.00,,,0.00,WeatherCatV1.15B25,2013-07-03 22:00:00,
2013-07-03 15:05:00,88.0,62.0,29.79,ESE,120,0.0,1.0,42,0.00,,,0.00,WeatherCatV1.15B25,2013-07-03 22:05:00,
2013-07-03 15:10:00,87.8,61.1,29.79,ENE,59,0.0,1.0,41,0.00,,,0.00,WeatherCatV1.15B25,2013-07-03 22:10:00,
2013-07-03 15:15:00,87.3,61.4,29.79,SE,129,0.0,1.0,42,0.00,,,0.00,WeatherCatV1.15B25,2013-07-03 22:15:00,
2013-07-03 15:20:00,87.1,61.8,29.79,SE,141,1.0,1.0,43,0.00,,,0.00,WeatherCatV1.15B25,2013-07-03 22:20:00,
2013-07-03 15:25:00,87.0,61.8,29.79,SE,141,0.0,1.0,43,0.00,,,0.00,WeatherCatV1.15B25,2013-07-03 22:25:00,
2013-07-03 15:30:00,86.8,61.6,29.79,SE,142,1.0,2.0,43,0.00,,,0.00,WeatherCatV1.15B25,2013-07-03 22:30:00,
2013-07-03 15:35:00,86.3,60.5,29.79,SE,136,1.0,1.0,42,0.00,,,0.00,WeatherCatV1.15B25,2013-07-03 22:35:00,
2013-07-03 15:40:00,85.7,60.6,29.79,SE,138,0.0,0.0,43,0.00,,,0.00,WeatherCatV1.15B25,2013-07-03 22:40:00,
2013-07-03 15:45:00,85.7,60.6,29.78,SE,135,0.0,0.0,43,0.00,,,0.00,WeatherCatV1.15B25,2013-07-03 22:45:00,
2013-07-03 15:50:00,85.8,60.7,29.78,SE,135,0.0,1.0,43,0.00,,,0.00,WeatherCatV1.15B25,2013-07-03 22:50:00,
2013-07-03 15:55:00,85.6,60.5,29.78,East,94,0.0,0.0,43,0.00,,,0.00,WeatherCatV1.15B25,2013-07-03 22:55:00,
2013-07-03 16:00:00,85.4,59.0,29.78,SE,131,0.0,1.0,41,0.00,,,0.00,WeatherCatV1.15B25,2013-07-03 23:00:00,
2013-07-03 16:05:00,85.1,58.7,29.78,SE,131,0.0,1.0,41,0.00,,,0.00,WeatherCatV1.15B25,2013-07-03 23:05:00,
2013-07-03 16:10:00,85.0,58.6,29.78,SE,131,0.0,0.0,41,0.00,,,0.00,WeatherCatV1.15B25,2013-07-03 23:10:00,
2013-07-03 16:15:00,84.8,58.4,29.77,SE,132,0.0,2.0,41,0.00,,,0.00,WeatherCatV1.15B25,2013-07-03 23:15:00,
2013-07-03 16:20:00,84.7,59.0,29.77,SE,132,0.0,1.0,42,0.00,,,0.00,WeatherCatV1.15B25,2013-07-03 23:20:00,
2013-07-03 16:25:00,84.7,59.0,29.77,SE,136,0.0,1.0,42,0.00,,,0.00,WeatherCatV1.15B25,2013-07-03 23:25:00,
2013-07-03 16:30:00,84.6,58.9,29.77,SE,136,0.0,1.0,42,0.00,,,0.00,WeatherCatV1.15B25,2013-07-03 23:30:00,
2013-07-03 16:35:00,84.5,58.9,29.77,SSE,148,0.0,2.0,42,0.00,,,0.00,WeatherCatV1.15B25,2013-07-03 23:35:00,
2013-07-03 16:40:00,84.4,59.4,29.77,SSE,147,0.0,1.0,43,0.00,,,0.00,WeatherCatV1.15B25,2013-07-03 23:40:00,
2013-07-03 16:45:00,84.3,58.7,29.77,SE,131,0.0,1.0,42,0.00,,,0.00,WeatherCatV1.15B25,2013-07-03 23:45:00,
2013-07-03 16:50:00,83.8,58.9,29.77,SE,140,0.0,1.0,43,0.00,,,0.00,WeatherCatV1.15B25,2013-07-03 23:50:00,
2013-07-03 16:55:00,83.5,58.6,29.77,SE,144,0.0,1.0,43,0.00,,,0.00,WeatherCatV1.15B25,2013-07-03 23:55:00,
2013-07-03 17:00:00,83.1,58.9,29.77,SE,144,0.0,0.0,44,0.00,,,0.00,WeatherCatV1.15B25,2013-07-04 00:00:00,
2013-07-03 17:05:00,82.9,58.7,29.77,SE,144,0.0,0.0,44,0.00,,,0.00,WeatherCatV1.15B25,2013-07-04 00:05:00,
2013-07-03 17:10:00,82.8,59.3,29.77,SE,144,0.0,0.0,45,0.00,,,0.00,WeatherCatV1.15B25,2013-07-04 00:10:00,
2013-07-03 17:15:00,82.8,59.3,29.76,SE,144,0.0,0.0,45,0.00,,,0.00,WeatherCatV1.15B25,2013-07-04 00:15:00,
2013-07-03 17:20:00,82.8,59.3,29.76,SE,144,0.0,0.0,45,0.00,,,0.00,WeatherCatV1.15B25,2013-07-04 00:20:00,
2013-07-03 17:25:00,82.6,58.4,29.76,SSE,151,0.0,1.0,44,0.00,,,0.00,WeatherCatV1.15B25,2013-07-04 00:25:00,
2013-07-03 17:30:00,82.3,58.2,29.76,SSE,151,0.0,1.0,44,0.00,,,0.00,WeatherCatV1.15B25,2013-07-04 00:30:00,
2013-07-03 17:35:00,82.0,57.9,29.76,SSE,151,0.0,0.0,44,0.00,,,0.00,WeatherCatV1.15B25,2013-07-04 00:35:00,
2013-07-03 17:40:00,81.7,57.6,29.76,SSE,151,0.0,0.0,44,0.00,,,0.00,WeatherCatV1.15B25,2013-07-04 00:40:00,
2013-07-03 17:45:00,81.4,56.7,29.76,SSE,151,0.0,0.0,43,0.00,,,0.00,WeatherCatV1.15B25,2013-07-04 00:45:00,
2013-07-03 17:50:00,81.0,56.4,29.76,SSE,151,0.0,1.0,43,0.00,,,0.00,WeatherCatV1.15B25,2013-07-04 00:50:00,
2013-07-03 17:55:00,80.6,56.0,29.76,SSE,151,0.0,0.0,43,0.00,,,0.00,WeatherCatV1.15B25,2013-07-04 00:55:00,
2013-07-03 18:00:00,80.3,55.7,29.75,SSE,151,0.0,0.0,43,0.00,,,0.00,WeatherCatV1.15B25,2013-07-04 01:00:00,
2013-07-03 18:05:00,79.9,55.4,29.75,SSE,151,0.0,1.0,43,0.00,,,0.00,WeatherCatV1.15B25,2013-07-04 01:05:00,
2013-07-03 18:10:00,79.3,54.8,29.75,SSE,151,1.0,1.0,43,0.00,,,0.00,WeatherCatV1.15B25,2013-07-04 01:10:00,
2013-07-03 18:15:00,78.6,53.6,29.75,SSE,151,0.0,1.0,42,0.00,,,0.00,WeatherCatV1.15B25,2013-07-04 01:15:00,
2013-07-03 18:20:00,78.0,53.0,29.75,SSE,151,1.0,1.0,42,0.00,,,0.00,WeatherCatV1.15B25,2013-07-04 01:20:00,
2013-07-03 18:25:00,77.1,52.9,29.75,SSE,151,1.0,1.0,43,0.00,,,0.00,WeatherCatV1.15B25,2013-07-04 01:25:00,
2013-07-03 18:30:00,76.3,52.1,29.76,SSE,151,0.0,0.0,43,0.00,,,0.00,WeatherCatV1.15B25,2013-07-04 01:30:00,
2013-07-03 18:35:00,75.7,52.2,29.76,SSE,150,0.0,1.0,44,0.00,,,0.00,WeatherCatV1.15B25,2013-07-04 01:35:00,
2013-07-03 18:40:00,75.2,51.8,29.76,SSE,150,0.0,0.0,44,0.00,,,0.00,WeatherCatV1.15B25,2013-07-04 01:40:00,
2013-07-03 18:45:00,74.9,52.1,29.76,SSE,150,0.0,0.0,45,0.00,,,0.00,WeatherCatV1.15B25,2013-07-04 01:45:00,
2013-07-03 18:50:00,74.8,52.6,29.76,SSE,150,0.0,0.0,46,0.00,,,0.00,WeatherCatV1.15B25,2013-07-04 01:50:00,
2013-07-03 18:55:00,74.6,52.4,29.76,SSE,150,0.0,0.0,46,0.00,,,0.00,WeatherCatV1.15B25,2013-07-04 01:55:00,
2013-07-03 19:00:00,74.5,52.9,29.76,SSE,150,0.0,0.0,47,0.00,,,0.00,WeatherCatV1.15B25,2013-07-04 02:00:00,
2013-07-03 19:05:00,74.5,52.9,29.76,SSE,150,0.0,0.0,47,0.00,,,0.00,WeatherCatV1.15B25,2013-07-04 02:05:00,
2013-07-03 19:10:00,74.3,52.2,29.76,SSE,150,0.0,0.0,46,0.00,,,0.00,WeatherCatV1.15B25,2013-07-04 02:10:00,
2013-07-03 19:16:00,74.1,52.0,29.76,SSE,150,0.0,0.0,46,0.00,,,0.00,WeatherCatV1.15B25,2013-07-04 02:16:00,
2013-07-03 19:21:00,74.0,51.9,29.76,SSE,150,0.0,0.0,46,0.00,,,0.00,WeatherCatV1.15B25,2013-07-04 02:21:00,
2013-07-03 19:26:00,73.9,53.0,29.76,SSE,150,0.0,0.0,48,0.00,,,0.00,WeatherCatV1.15B25,2013-07-04 02:26:00,
2013-07-03 19:31:00,73.8,54.0,29.76,SSE,150,0.0,0.0,50,0.00,,,0.00,WeatherCatV1.15B25,2013-07-04 02:31:00,
2013-07-03 19:36:00,73.8,54.0,29.76,SSE,150,0.0,0.0,50,0.00,,,0.00,WeatherCatV1.15B25,2013-07-04 02:36:00,
2013-07-03 19:41:00,73.8,53.4,29.76,SSE,150,0.0,0.0,49,0.00,,,0.00,WeatherCatV1.15B25,2013-07-04 02:41:00,
2013-07-03 19:46:00,73.8,54.0,29.76,SSE,150,0.0,0.0,50,0.00,,,0.00,WeatherCatV1.15B25,2013-07-04 02:46:00,
2013-07-03 19:51:00,73.8,54.5,29.76,SSE,150,0.0,0.0,51,0.00,,,0.00,WeatherCatV1.15B25,2013-07-04 02:51:00,
2013-07-03 19:56:00,73.8,55.1,29.76,WNW,293,1.0,1.0,52,0.00,,,0.00,WeatherCatV1.15B25,2013-07-04 02:56:00,
2013-07-03 20:01:00,75.2,57.9,29.75,NNW,336,5.0,5.0,55,0.00,,,0.00,WeatherCatV1.15B25,2013-07-04 03:01:00,
2013-07-03 20:06:00,77.4,57.8,29.75,NNW,335,4.0,5.0,51,0.00,,,0.00,WeatherCatV1.15B25,2013-07-04 03:06:00,
2013-07-03 20:11:00,78.5,58.3,29.75,NNW,331,1.0,3.0,50,0.00,,,0.00,WeatherCatV1.15B25,2013-07-04 03:11:00,
2013-07-03 20:16:00,79.1,58.3,29.74,NNW,331,2.0,2.0,49,0.00,,,0.00,WeatherCatV1.15B25,2013-07-04 03:16:00,
2013-07-03 20:21:00,79.3,58.5,29.74,NNW,332,0.0,1.0,49,0.00,,,0.00,WeatherCatV1.15B25,2013-07-04 03:21:00,
2013-07-03 20:26:00,79.1,58.3,29.74,NNW,333,0.0,0.0,49,0.00,,,0.00,WeatherCatV1.15B25,2013-07-04 03:26:00,
2013-07-03 20:31:00,78.9,58.7,29.74,NNW,333,0.0,1.0,50,0.00,,,0.00,WeatherCatV1.15B25,2013-07-04 03:31:00,
2013-07-03 20:36:00,78.6,58.9,29.74,NNW,333,0.0,0.0,51,0.00,,,0.00,WeatherCatV1.15B25,2013-07-04 03:36:00,
2013-07-03 20:41:00,78.6,58.9,29.74,NNW,333,0.0,1.0,51,0.00,,,0.00,WeatherCatV1.15B25,2013-07-04 03:41:00,
2013-07-03 20:46:00,78.9,58.7,29.74,NNW,334,1.0,2.0,50,0.00,,,0.00,WeatherCatV1.15B25,2013-07-04 03:46:00,
2013-07-03 20:51:00,79.6,57.6,29.74,NNW,337,1.0,2.0,47,0.00,,,0.00,WeatherCatV1.15B25,2013-07-04 03:51:00,
2013-07-03 20:56:00,80.5,57.2,29.74,NNW,337,0.0,1.0,45,0.00,,,0.00,WeatherCatV1.15B25,2013-07-04 03:56:00,
2013-07-03 21:01:00,80.9,58.8,29.74,NNW,337,0.0,0.0,47,0.00,,,0.00,WeatherCatV1.15B25,2013-07-04 04:01:00,
2013-07-03 21:06:00,80.8,58.1,29.74,NNW,337,0.0,0.0,46,0.00,,,0.00,WeatherCatV1.15B25,2013-07-04 04:06:00,
2013-07-03 21:11:00,80.3,58.2,29.74,NNW,337,0.0,0.0,47,0.00,,,0.00,WeatherCatV1.15B25,2013-07-04 04:11:00,
2013-07-03 21:16:00,79.8,57.8,29.74,NNW,337,0.0,0.0,47,0.00,,,0.00,WeatherCatV1.15B25,2013-07-04 04:16:00,
2013-07-03 21:21:00,79.3,57.9,29.74,NNW,337,0.0,0.0,48,0.00,,,0.00,WeatherCatV1.15B25,2013-07-04 04:21:00,
2013-07-03 21:26:00,78.6,57.2,29.74,NNW,337,1.0,1.0,48,0.00,,,0.00,WeatherCatV1.15B25,2013-07-04 04:26:00,
2013-07-03 21:31:00,77.9,57.2,29.74,NNW,337,1.0,1.0,49,0.00,,,0.00,WeatherCatV1.15B25,2013-07-04 04:31:00,
2013-07-03 21:36:00,77.5,57.4,29.74,NNW,337,2.0,2.0,50,0.00,,,0.00,WeatherCatV1.15B25,2013-07-04 04:36:00,
2013-07-03 21:41:00,77.9,57.2,29.74,NNW,331,1.0,4.0,49,0.00,,,0.00,WeatherCatV1.15B25,2013-07-04 04:41:00,
2013-07-03 21:46:00,79.1,57.1,29.74,NNW,333,1.0,4.0,47,0.00,,,0.00,WeatherCatV1.15B25,2013-07-04 04:46:00,
2013-07-03 21:51:00,79.8,56.5,29.74,NNW,331,0.0,1.0,45,0.00,,,0.00,WeatherCatV1.15B25,2013-07-04 04:51:00,
2013-07-03 21:56:00,80.1,57.4,29.74,NNW,331,0.0,0.0,46,0.00,,,0.00,WeatherCatV1.15B25,2013-07-04 04:56:00,
2013-07-03 22:00:00,80.1,57.4,29.74,NNW,331,0.0,0.0,46,0.00,,,0.00,WeatherCatV1.15B25,2013-07-04 05:00:00,
2013-07-03 22:05:00,79.8,57.2,29.74,NNW,331,0.0,0.0,46,0.00,,,0.00,WeatherCatV1.15B25,2013-07-04 05:05:00,
2013-07-03 22:10:00,79.5,57.5,29.74,NNW,331,0.0,0.0,47,0.00,,,0.00,WeatherCatV1.15B25,2013-07-04 05:10:00,
2013-07-03 22:15:00,79.3,57.9,29.74,NNW,331,0.0,0.0,48,0.00,,,0.00,WeatherCatV1.15B25,2013-07-04 05:15:00,
2013-07-03 22:20:00,78.9,57.5,29.74,NNW,331,0.0,0.0,48,0.00,,,0.00,WeatherCatV1.15B25,2013-07-04 05:20:00,
2013-07-03 22:25:00,78.5,57.2,29.74,NNW,331,0.0,0.0,48,0.00,,,0.00,WeatherCatV1.15B25,2013-07-04 05:25:00,
2013-07-03 22:30:00,78.0,56.7,29.74,NNW,331,0.0,0.0,48,0.00,,,0.00,WeatherCatV1.15B25,2013-07-04 05:30:00,
2013-07-03 22:35:00,77.6,56.9,29.74,NNW,331,0.0,0.0,49,0.00,,,0.00,WeatherCatV1.15B25,2013-07-04 05:35:00,
2013-07-03 22:40:00,77.3,57.2,29.74,NNW,331,0.0,0.0,50,0.00,,,0.00,WeatherCatV1.15B25,2013-07-04 05:40:00,
2013-07-03 22:45:00,76.8,56.7,29.74,NNW,331,0.0,0.0,50,0.00,,,0.00,WeatherCatV1.15B25,2013-07-04 05:45:00,
2013-07-03 22:50:00,76.5,57.0,29.74,NNW,331,0.0,0.0,51,0.00,,,0.00,WeatherCatV1.15B25,2013-07-04 05:50:00,
2013-07-03 22:55:00,76.3,56.8,29.74,NNW,331,0.0,0.0,51,0.00,,,0.00,WeatherCatV1.15B25,2013-07-04 05:55:00,
2013-07-03 23:00:00,76.0,57.1,29.74,NNW,331,0.0,0.0,52,0.00,,,0.00,WeatherCatV1.15B25,2013-07-04 06:00:00,
2013-07-03 23:05:00,75.9,57.5,29.74,NNW,331,0.0,0.0,53,0.00,,,0.00,WeatherCatV1.15B25,2013-07-04 06:05:00,
2013-07-03 23:10:00,75.7,57.3,29.74,NNW,331,0.0,0.0,53,0.00,,,0.00,WeatherCatV1.15B25,2013-07-04 06:10:00,
2013-07-03 23:15:00,75.6,57.2,29.74,NNW,331,0.0,0.0,53,0.00,,,0.00,WeatherCatV1.15B25,2013-07-04 06:15:00,
2013-07-03 23:20:00,75.3,57.0,29.74,NNW,331,2.0,3.0,53,0.00,,,0.00,WeatherCatV1.15B25,2013-07-04 06:20:00,
2013-07-03 23:25:00,75.0,56.2,29.74,NNW,331,0.0,1.0,52,0.00,,,0.00,WeatherCatV1.15B25,2013-07-04 06:25:00,
2013-07-03 23:30:00,75.2,56.3,29.73,NNW,330,0.0,0.0,52,0.00,,,0.00,WeatherCatV1.15B25,2013-07-04 06:30:00,
2013-07-03 23:35:00,75.3,55.9,29.73,NNW,330,0.0,0.0,51,0.00,,,0.00,WeatherCatV1.15B25,2013-07-04 06:35:00,
2013-07-03 23:40:00,75.6,56.2,29.73,NNW,330,0.0,0.0,51,0.00,,,0.00,WeatherCatV1.15B25,2013-07-04 06:40:00,
2013-07-03 23:45:00,76.0,56.5,29.72,NNW,330,0.0,0.0,51,0.00,,,0.00,WeatherCatV1.15B25,2013-07-04 06:45:00,
2013-07-03 23:50:00,76.3,56.8,29.72,NNW,330,0.0,0.0,51,0.00,,,0.00,WeatherCatV1.15B25,2013-07-04 06:50:00,
2013-07-03 23:55:00,76.5,56.5,29.72,NNW,330,0.0,0.0,50,0.00,,,0.00,WeatherCatV1.15B25,2013-07-04 06:55:00,